Weather History for KTRI - May, 2014

Change the Weather History Date:

Wednesday, May 21, 2014

  Actual Average Record
Temperature  
Mean Temperature 68 °F 65 °F  
Max Temperature 83 °F 77 °F 93 °F (1941)
Min Temperature 53 °F 53 °F 37 °F (2002)
Degree Days  
Heating Degree Days 0 3  
Month to date heating degree days 77 90  
Since 1 July heating degree days 4407 4344  
Cooling Degree Days 3 3  
Month to date cooling degree days 56 31  
Year to date cooling degree days 77 42  
Growing Degree Days 17 (Base 50)    
Moisture  
Dew Point 56 °F    
Average Humidity 68    
Maximum Humidity 93    
Minimum Humidity 42    
Precipitation  
Precipitation 0.35 in 0.13 in 1.10 in (1947)
Month to date precipitation 1.76 2.54  
Year to date precipitation 11.56 16.13  
Snow  
Snow 0.00 in 0.00 in - ()
Month to date snowfall 0.0 0.0  
Since 1 July snowfall 13.0 13.3  
Snow Depth 0.00 in    
Sea Level Pressure  
Sea Level Pressure 30.05 in    
Wind  
Wind Speed 8 mph (WSW)    
Max Wind Speed 31 mph    
Max Gust Speed 43 mph    
Visibility 9 miles    
Events Rain , Thunderstorm    
T = Trace of Precipitation, MM = Missing Value Source: NWS Daily Summary

Daily Weather History Graph

Daily Weather History Graph

Search for Another Location

Airport or City:

Trip Planner

Search our weather history database for the weather conditions in past years. The results will help you decide how hot, cold, wet, or windy it might be!

Date:

Astronomy

May. 21, 2014 Rise Set
Actual Time 6:18 AM EDT 8:34 PM EDT
Civil Twilight 5:49 AM EDT 9:03 PM EDT
Nautical Twilight 5:13 AM EDT 9:39 PM EDT
Astronomical Twilight 4:34 AM EDT 10:18 PM EDT
Moon 1:47 AM EDT (5/21) 1:26 PM EDT (5/21)
Length of Visible Light 15h 14m
Length of Day
14h 16m
Waning Gibbous, 49% of the Moon is Illuminated
May 21
Waning Gibbous
May 28
New
Jun 5
First Quarter
Jun 13
Full
Jun 19
Last Quarter

Hourly Weather History & Observations

Time (EDT) Temp. Heat Index Dew Point Humidity Pressure Visibility Wind Dir Wind Speed Gust Speed Precip Events Conditions
12:53 AM 57.9 °F - 54.0 °F 87% 30.06 in 10.0 mi Calm Calm - N/A   Clear
1:53 AM 57.0 °F - 53.1 °F 87% 30.07 in 9.0 mi Calm Calm - N/A   Clear
2:53 AM 55.9 °F - 53.1 °F 90% 30.07 in 7.0 mi Calm Calm - N/A   Clear
3:53 AM 55.0 °F - 52.0 °F 89% 30.07 in 5.0 mi Calm Calm - N/A   Clear
4:53 AM 55.0 °F - 52.0 °F 89% 30.08 in 6.0 mi Calm Calm - N/A   Clear
5:02 AM 55.0 °F - 52.0 °F 89% 30.14 in 5.0 mi Calm Calm - N/A   Partly Cloudy
5:53 AM 53.1 °F - 51.1 °F 93% 30.08 in 5.0 mi Calm Calm - N/A   Scattered Clouds
6:53 AM 53.1 °F - 51.1 °F 93% 30.09 in 10.0 mi Calm Calm - N/A   Mostly Cloudy
7:53 AM 57.2 °F - 53.6 °F 88% 30.16 in 9.0 mi Calm Calm - N/A   Mostly Cloudy
8:53 AM 64.0 °F - 55.9 °F 75% 30.10 in 10.0 mi Calm Calm - N/A   Mostly Cloudy
9:53 AM 72.0 °F - 55.9 °F 57% 30.09 in 10.0 mi West 5.8 mph - N/A   Mostly Cloudy
11:53 AM 77.0 °F - 57.0 °F 50% 30.07 in 10.0 mi WSW 18.4 mph - N/A   Mostly Cloudy
12:53 PM 79.0 °F - 57.9 °F 48% 30.05 in 10.0 mi WSW 13.8 mph - N/A   Mostly Cloudy
1:53 PM 80.6 °F 80.8 °F 57.2 °F 45% 30.10 in 10.0 mi WSW 18.4 mph 23.0 mph N/A   Mostly Cloudy
2:53 PM 81.0 °F 80.8 °F 55.9 °F 42% 30.03 in 10.0 mi West 20.7 mph 26.5 mph N/A   Mostly Cloudy
3:53 PM 80.1 °F 80.2 °F 55.9 °F 43% 30.01 in 10.0 mi West 12.7 mph - N/A   Mostly Cloudy
4:53 PM 81.0 °F 80.8 °F 55.9 °F 42% 29.99 in 10.0 mi SW 18.4 mph 27.6 mph N/A   Mostly Cloudy
5:53 PM 79.0 °F - 57.0 °F 47% 29.98 in 10.0 mi WSW 12.7 mph - N/A   Mostly Cloudy
6:53 PM 79.0 °F - 57.9 °F 48% 29.97 in 10.0 mi WSW 10.4 mph 20.7 mph N/A   Mostly Cloudy
7:53 PM 78.1 °F - 59.0 °F 52% 29.99 in 10.0 mi WSW 8.1 mph - N/A   Overcast
8:53 PM 75.0 °F - 59.0 °F 57% 29.99 in 10.0 mi SW 4.6 mph - N/A   Overcast
9:53 PM 73.0 °F - 60.1 °F 64% 29.99 in 10.0 mi SSW 5.8 mph - N/A   Mostly Cloudy
10:53 PM 72.0 °F - 60.1 °F 66% 29.99 in 10.0 mi SSW 4.6 mph - N/A   Mostly Cloudy
11:45 PM 73.0 °F - 59.0 °F 61% 30.09 in 10.0 mi WSW 10.4 mph - N/A Thunderstorm Thunderstorm
11:53 PM 68.0 °F - 61.0 °F 78% 30.05 in 2.0 mi West 27.6 mph 42.6 mph 0.10 in Rain , Thunderstorm Heavy Thunderstorms and Rain